| time (UTC) | temp F | wind direction | speed MPH | gust MPH | rain 1hr in | rain 24hr in | rain mn in | humidity % | barometer mb |
| 20260903015729 | 61 | 190 | 2.0 | 8.0 | 0.00 | 0.45 | 0.00 | 87 | 1004.5 |
| 20260903015229 | 61 | 187 | 0.0 | 8.0 | 0.00 | 0.45 | 0.00 | 86 | 1004.4 |
| 20260903014729 | 61 | 224 | 0.0 | 8.0 | 0.00 | 0.45 | 0.00 | 86 | 1004.4 |
| 20260903014229 | 61 | 203 | 3.0 | 7.0 | 0.00 | 0.45 | 0.00 | 85 | 1004.4 |
| 20260903013729 | 62 | 194 | 1.0 | 12.0 | 0.00 | 0.45 | 0.00 | 85 | 1004.4 |
| 20260903013229 | 62 | 254 | 0.0 | 12.0 | 0.00 | 0.45 | 0.00 | 84 | 1004.4 |
| 20260903012729 | 62 | 288 | 4.0 | 12.0 | 0.00 | 0.45 | 0.00 | 84 | 1004.4 |
| 20260903012229 | 62 | 203 | 0.0 | 11.0 | 0.00 | 0.45 | 0.00 | 84 | 1004.4 |
| 20260903011729 | 62 | 256 | 4.0 | 11.0 | 0.00 | 0.45 | 0.00 | 85 | 1004.4 |
| 20260903011229 | 62 | 250 | 5.0 | 13.0 | 0.00 | 0.45 | 0.00 | 85 | 1004.4 |
| 20260903010729 | 62 | 205 | 6.0 | 13.0 | 0.00 | 0.45 | 0.00 | 86 | 1004.3 |
| 20260903010229 | 62 | 219 | 2.0 | 13.0 | 0.00 | 0.45 | 0.00 | 85 | 1004.3 |
| 20260903005729 | 62 | 260 | 3.0 | 11.0 | 0.00 | 0.45 | 0.00 | 85 | 1004.3 |
| 20260903005229 | 62 | 231 | 5.0 | 9.0 | 0.00 | 0.45 | 0.00 | 84 | 1004.2 |
| 20260903004729 | 62 | 222 | 5.0 | 11.0 | 0.00 | 0.45 | 0.00 | 84 | 1004.2 |
| 20260903004229 | 62 | 232 | 5.0 | 11.0 | 0.00 | 0.45 | 0.00 | 83 | 1004.2 |
| 20260903003729 | 63 | 204 | 6.0 | 11.0 | 0.00 | 0.45 | 0.00 | 83 | 1004.1 |
| 20260903003229 | 63 | 196 | 4.0 | 11.0 | 0.00 | 0.45 | 0.00 | 83 | 1004.1 |
| 20260903002729 | 62 | 222 | 6.0 | 11.0 | 0.00 | 0.45 | 0.00 | 83 | 1004.1 |
| 20260903002230 | 63 | 250 | 5.0 | 11.0 | 0.00 | 0.45 | 0.00 | 82 | 1004.1 |
| 20260903001729 | 63 | 287 | 6.0 | 13.0 | 0.00 | 0.45 | 0.00 | 83 | 1004.0 |
| 20260903001229 | 63 | 263 | 5.0 | 13.0 | 0.00 | 0.45 | 0.00 | 83 | 1003.9 |
| 20260903000729 | 63 | 187 | 6.0 | 13.0 | 0.00 | 0.45 | 0.00 | 84 | 1003.8 |
| 20260903000229 | 63 | 240 | 3.0 | 10.0 | 0.00 | 0.45 | 0.00 | 87 | 1003.7 |
| 20260902235729 | 63 | 228 | 5.0 | 10.0 | 0.00 | 0.45 | 0.00 | 87 | 1003.8 |
| 20260902235229 | 63 | 245 | 4.0 | 10.0 | 0.00 | 0.45 | 0.00 | 88 | 1003.7 |
| 20260902234729 | 64 | 177 | 6.0 | 8.0 | 0.00 | 0.45 | 0.00 | 88 | 1003.6 |
| 20260902234229 | 63 | 274 | 4.0 | 8.0 | 0.00 | 0.45 | 0.00 | 89 | 1003.6 |
| 20260902233729 | 63 | 207 | 0.0 | 7.0 | 0.00 | 0.45 | 0.00 | 90 | 1003.5 |
| 20260902233229 | 64 | 177 | 3.0 | 7.0 | 0.00 | 0.45 | 0.00 | 91 | 1003.4 |
| 20260902232729 | 64 | 203 | 1.0 | 6.0 | 0.00 | 0.45 | 0.45 | 92 | 1003.4 |
| 20260902232229 | 64 | 0 | 0.0 | 0.0 | 0.00 | 0.45 | 0.45 | 94 | 1003.4 |
| 20260902231729 | 64 | 0 | 0.0 | 5.0 | 0.00 | 0.45 | 0.45 | 94 | 1003.4 |
| 20260902231229 | 64 | 152 | 0.0 | 5.0 | 0.00 | 0.45 | 0.45 | 96 | 1003.4 |
| 20260902230729 | 64 | 180 | 0.0 | 5.0 | 0.00 | 0.45 | 0.45 | 96 | 1003.3 |
| 20260902230229 | 64 | 193 | 0.0 | 5.0 | 0.00 | 0.45 | 0.45 | 97 | 1003.2 |
| 20260902225729 | 64 | 193 | 0.0 | 5.0 | 0.00 | 0.45 | 0.45 | 97 | 1003.2 |
| 20260902225229 | 64 | 198 | 0.0 | 6.0 | 0.01 | 0.45 | 0.45 | 97 | 1003.2 |
| 20260902224729 | 64 | 257 | 0.0 | 6.0 | 0.01 | 0.45 | 0.45 | 97 | 1003.1 |
| 20260902224229 | 63 | 196 | 0.0 | 6.0 | 0.01 | 0.45 | 0.45 | 98 | 1003.0 |
| 20260902223729 | 63 | 207 | 0.0 | 9.0 | 0.01 | 0.45 | 0.45 | 98 | 1003.0 |
| 20260902223229 | 63 | 267 | 0.0 | 9.0 | 0.01 | 0.45 | 0.45 | 98 | 1002.9 |
| 20260902222729 | 63 | 288 | 0.0 | 9.0 | 0.01 | 0.45 | 0.45 | 99 | 1002.9 |
| 20260902222230 | 62 | 246 | 0.0 | 6.0 | 0.01 | 0.45 | 0.45 | 99 | 1002.9 |
| 20260902221729 | 62 | 295 | 0.0 | 6.0 | 0.01 | 0.45 | 0.45 | 99 | 1002.9 |
| 20260902221229 | 62 | 0 | 0.0 | 0.0 | 0.01 | 0.45 | 0.45 | 99 | 1002.9 |
| 20260902220729 | 61 | 0 | 0.0 | 6.0 | 0.01 | 0.45 | 0.45 | 99 | 1002.8 |
| 20260902220229 | 61 | 0 | 0.0 | 6.0 | 0.02 | 0.45 | 0.45 | 99 | 1002.8 |
| 20260902215729 | 60 | 271 | 0.0 | 6.0 | 0.02 | 0.45 | 0.45 | 99 | 1002.9 |
| 20260902215229 | 60 | 0 | 0.0 | 6.0 | 0.01 | 0.45 | 0.45 | 99 | 1002.8 |
| 20260902214729 | 60 | 219 | 0.0 | 6.0 | 0.01 | 0.44 | 0.44 | 99 | 1002.8 |
| 20260902214229 | 60 | 0 | 0.0 | 5.0 | 0.01 | 0.44 | 0.44 | 98 | 1002.7 |
| 20260902213729 | 60 | 201 | 0.0 | 5.0 | 0.01 | 0.44 | 0.44 | 98 | 1002.6 |
| 20260902213229 | 60 | 0 | 0.0 | 5.0 | 0.01 | 0.44 | 0.44 | 98 | 1002.5 |
| 20260902212729 | 60 | 211 | 0.0 | 5.0 | 0.01 | 0.44 | 0.44 | 98 | 1002.5 |
| 20260902212231 | 60 | 0 | 1.0 | 5.0 | 0.02 | 0.44 | 0.44 | 99 | 1002.5 |
| 20260902211729 | 60 | 0 | 0.0 | 5.0 | 0.02 | 0.44 | 0.44 | 99 | 1002.4 |
| 20260902211229 | 60 | 194 | 0.0 | 5.0 | 0.02 | 0.44 | 0.44 | 99 | 1002.3 |
| 20260902210729 | 59 | 191 | 1.0 | 2.0 | 0.02 | 0.44 | 0.44 | 98 | 1002.4 |
| 20260902210229 | 59 | 0 | 0.0 | 0.0 | 0.01 | 0.44 | 0.44 | 98 | 1002.4 |
| 20260902205729 | 59 | 0 | 0.0 | 3.0 | 0.01 | 0.43 | 0.43 | 98 | 1002.5 |
| 20260902205229 | 59 | 0 | 0.0 | 3.0 | 0.01 | 0.43 | 0.43 | 98 | 1002.4 |
| 20260902204729 | 59 | 0 | 0.0 | 3.0 | 0.01 | 0.43 | 0.43 | 98 | 1002.3 |
| 20260902204229 | 59 | 177 | 0.0 | 5.0 | 0.02 | 0.43 | 0.43 | 99 | 1002.2 |
| 20260902203729 | 59 | 218 | 0.0 | 5.0 | 0.02 | 0.43 | 0.43 | 98 | 1002.1 |
| 20260902203229 | 59 | 218 | 1.0 | 5.0 | 0.03 | 0.43 | 0.43 | 98 | 1002.1 |
| 20260902202729 | 59 | 177 | 0.0 | 10.0 | 0.03 | 0.43 | 0.43 | 98 | 1001.9 |
| 20260902202229 | 59 | 175 | 0.0 | 10.0 | 0.03 | 0.43 | 0.43 | 98 | 1001.8 |
| 20260902201729 | 59 | 273 | 0.0 | 10.0 | 0.03 | 0.42 | 0.42 | 98 | 1001.8 |
| 20260902201229 | 59 | 200 | 0.0 | 13.0 | 0.04 | 0.42 | 0.42 | 98 | 1001.6 |
| 20260902200729 | 59 | 268 | 5.0 | 13.0 | 0.04 | 0.42 | 0.42 | 98 | 1001.6 |
| 20260902200229 | 59 | 217 | 3.0 | 13.0 | 0.06 | 0.42 | 0.42 | 98 | 1001.5 |
| 20260902195729 | 59 | 278 | 4.0 | 23.0 | 0.06 | 0.42 | 0.42 | 98 | 1001.5 |
| 20260902195229 | 59 | 280 | 7.0 | 23.0 | 0.10 | 0.42 | 0.42 | 98 | 1001.5 |
| 20260902194729 | 59 | 226 | 6.0 | 23.0 | 0.10 | 0.42 | 0.42 | 98 | 1001.5 |
| 20260902194229 | 59 | 201 | 11.0 | 18.0 | 0.13 | 0.41 | 0.41 | 98 | 1001.4 |
| 20260902193729 | 59 | 189 | 7.0 | 18.0 | 0.13 | 0.41 | 0.41 | 98 | 1001.4 |
| 20260902193229 | 59 | 200 | 10.0 | 15.0 | 0.15 | 0.41 | 0.41 | 98 | 1001.3 |
| 20260902192729 | 59 | 225 | 5.0 | 15.0 | 0.15 | 0.40 | 0.40 | 99 | 1001.4 |
| 20260902192229 | 59 | 194 | 7.0 | 15.0 | 0.16 | 0.39 | 0.39 | 99 | 1001.4 |
| 20260902191729 | 59 | 201 | 10.0 | 11.0 | 0.16 | 0.39 | 0.39 | 99 | 1001.2 |
| 20260902191229 | 59 | 210 | 1.0 | 14.0 | 0.16 | 0.39 | 0.39 | 99 | 1001.2 |
| 20260902190729 | 59 | 184 | 0.0 | 14.0 | 0.16 | 0.38 | 0.38 | 99 | 1001.2 |
| 20260902190229 | 59 | 156 | 0.0 | 14.0 | 0.15 | 0.37 | 0.37 | 99 | 1001.1 |
| 20260902185729 | 59 | 67 | 2.0 | 11.0 | 0.15 | 0.36 | 0.36 | 99 | 1001.2 |
| 20260902185231 | 59 | 85 | 0.0 | 11.0 | 0.11 | 0.34 | 0.34 | 99 | 1001.0 |
| 20260902184729 | 59 | 72 | 2.0 | 11.0 | 0.11 | 0.32 | 0.32 | 99 | 1000.9 |
| 20260902184229 | 58 | 130 | 1.0 | 11.0 | 0.07 | 0.30 | 0.30 | 99 | 1000.9 |
| 20260902183729 | 59 | 70 | 0.0 | 11.0 | 0.07 | 0.29 | 0.29 | 99 | 1000.9 |
| 20260902183228 | 58 | 109 | 2.0 | 10.0 | 0.04 | 0.27 | 0.27 | 99 | 1000.7 |
| 20260902182729 | 59 | 103 | 1.0 | 10.0 | 0.04 | 0.25 | 0.25 | 99 | 1000.7 |
| 20260902182228 | 59 | 71 | 4.0 | 13.0 | 0.03 | 0.24 | 0.24 | 99 | 1000.6 |
| 20260902181729 | 58 | 190 | 0.0 | 13.0 | 0.03 | 0.23 | 0.23 | 99 | 1000.6 |
| 20260902181229 | 58 | 86 | 3.0 | 13.0 | 0.03 | 0.22 | 0.22 | 99 | 1000.6 |
| 20260902180728 | 58 | 81 | 1.0 | 10.0 | 0.03 | 0.22 | 0.22 | 99 | 1000.6 |
| 20260902180229 | 58 | 109 | 3.0 | 9.0 | 0.03 | 0.22 | 0.22 | 99 | 1000.4 |
| 20260902175729 | 58 | 177 | 3.0 | 14.0 | 0.03 | 0.21 | 0.21 | 99 | 1000.4 |
| 20260902175228 | 58 | 102 | 3.0 | 14.0 | 0.05 | 0.21 | 0.21 | 99 | 1000.3 |
| 20260902174729 | 58 | 128 | 2.0 | 14.0 | 0.05 | 0.21 | 0.21 | 99 | 1000.3 |
| 20260902174229 | 58 | 110 | 3.0 | 11.0 | 0.06 | 0.21 | 0.21 | 99 | 1000.2 |
| 20260902173729 | 58 | 89 | 5.0 | 11.0 | 0.06 | 0.21 | 0.21 | 98 | 1000.2 |
| 20260902173228 | 58 | 86 | 4.0 | 13.0 | 0.08 | 0.21 | 0.21 | 98 | 1000.2 |
| 20260902172729 | 58 | 116 | 5.0 | 13.0 | 0.08 | 0.21 | 0.21 | 98 | 1000.1 |
| 20260902172228 | 58 | 93 | 3.0 | 13.0 | 0.07 | 0.21 | 0.21 | 98 | 1000.2 |
| 20260902171728 | 58 | 74 | 5.0 | 19.0 | 0.07 | 0.20 | 0.20 | 98 | 1000.1 |
| 20260902171229 | 58 | 102 | 3.0 | 19.0 | 0.07 | 0.20 | 0.20 | 98 | 1000.2 |
| 20260902170728 | 58 | 123 | 8.0 | 19.0 | 0.07 | 0.19 | 0.19 | 98 | 1000.2 |
| 20260902170228 | 58 | 196 | 6.0 | 11.0 | 0.07 | 0.19 | 0.19 | 98 | 1000.3 |
| 20260902165728 | 58 | 117 | 6.0 | 11.0 | 0.07 | 0.18 | 0.18 | 98 | 1000.4 |
| 20260902165228 | 58 | 133 | 3.0 | 11.0 | 0.05 | 0.17 | 0.17 | 98 | 1000.5 |
| 20260902164728 | 58 | 81 | 1.0 | 11.0 | 0.05 | 0.16 | 0.16 | 98 | 1000.6 |
| 20260902164228 | 58 | 121 | 5.0 | 11.0 | 0.04 | 0.15 | 0.15 | 99 | 1000.7 |
| 20260902163728 | 58 | 65 | 2.0 | 11.0 | 0.04 | 0.15 | 0.15 | 99 | 1000.8 |
| 20260902163228 | 58 | 133 | 0.0 | 7.0 | 0.03 | 0.14 | 0.15 | 98 | 1001.0 |
| 20260902162728 | 58 | 137 | 0.0 | 8.0 | 0.03 | 0.14 | 0.14 | 98 | 1001.0 |
| 20260902162228 | 58 | 123 | 1.0 | 8.0 | 0.04 | 0.13 | 0.13 | 98 | 1001.1 |
| 20260902161728 | 58 | 103 | 0.0 | 8.0 | 0.04 | 0.13 | 0.13 | 98 | 1001.2 |
| 20260902161228 | 58 | 106 | 0.0 | 8.0 | 0.04 | 0.12 | 0.12 | 98 | 1001.4 |
| 20260902160728 | 58 | 91 | 0.0 | 8.0 | 0.04 | 0.12 | 0.12 | 98 | 1001.5 |
| 20260902160228 | 58 | 88 | 0.0 | 5.0 | 0.05 | 0.12 | 0.12 | 98 | 1001.6 |
| 20260902155728 | 58 | 0 | 1.0 | 5.0 | 0.05 | 0.11 | 0.11 | 98 | 1001.8 |
| 20260902155228 | 58 | 82 | 0.0 | 5.0 | 0.07 | 0.11 | 0.11 | 98 | 1001.9 |
| 20260902154728 | 58 | 0 | 0.0 | 2.0 | 0.07 | 0.11 | 0.11 | 98 | 1002.0 |
| 20260902154228 | 58 | 130 | 0.0 | 2.0 | 0.08 | 0.11 | 0.11 | 98 | 1002.1 |
| 20260902153728 | 58 | 0 | 0.0 | 0.0 | 0.08 | 0.11 | 0.11 | 97 | 1002.1 |
| 20260902153228 | 58 | 0 | 0.0 | 0.0 | 0.09 | 0.11 | 0.11 | 97 | 1002.1 |
| 20260902152728 | 58 | 0 | 0.0 | 6.0 | 0.09 | 0.10 | 0.10 | 97 | 1002.1 |
| 20260902152228 | 58 | 0 | 0.0 | 6.0 | 0.08 | 0.10 | 0.10 | 97 | 1002.1 |
| 20260902151728 | 58 | 117 | 0.0 | 6.0 | 0.08 | 0.10 | 0.10 | 97 | 1002.1 |
| 20260902151228 | 58 | 0 | 0.0 | 0.0 | 0.07 | 0.09 | 0.09 | 97 | 1002.1 |
| 20260902150728 | 58 | 0 | 0.0 | 0.0 | 0.07 | 0.09 | 0.09 | 97 | 1002.1 |
| 20260902150228 | 58 | 0 | 0.0 | 0.0 | 0.05 | 0.08 | 0.08 | 97 | 1002.0 |
| 20260902145728 | 58 | 0 | 0.0 | 0.0 | 0.05 | 0.06 | 0.06 | 96 | 1002.2 |
| 20260902145228 | 58 | 0 | 0.0 | 0.0 | 0.03 | 0.06 | 0.05 | 96 | 1002.2 |
| 20260902144728 | 58 | 0 | 0.0 | 0.0 | 0.03 | 0.06 | 0.05 | 96 | 1002.2 |
| 20260902144228 | 59 | 0 | 0.0 | 5.0 | 0.02 | 0.06 | 0.04 | 96 | 1002.2 |
| 20260902143728 | 59 | 0 | 0.0 | 5.0 | 0.02 | 0.06 | 0.03 | 96 | 1002.3 |
| 20260902143228 | 59 | 0 | 0.0 | 5.0 | 0.00 | 0.05 | 0.02 | 96 | 1002.2 |
| 20260902142728 | 59 | 120 | 0.0 | 7.0 | 0.00 | 0.05 | 0.01 | 96 | 1002.1 |
| 20260902142228 | 59 | 112 | 0.0 | 7.0 | 0.00 | 0.05 | 0.01 | 95 | 1002.1 |
| 20260902141728 | 59 | 103 | 0.0 | 7.0 | 0.00 | 0.05 | 0.01 | 95 | 1002.1 |
| 20260902141228 | 58 | 0 | 0.0 | 5.0 | 0.00 | 0.05 | 0.01 | 96 | 1002.2 |
| 20260902140729 | 59 | 127 | 0.0 | 5.0 | 0.00 | 0.05 | 0.01 | 96 | 1002.2 |
| 20260902140228 | 58 | 156 | 1.0 | 5.0 | 0.00 | 0.05 | 0.01 | 96 | 1002.3 |
| 20260902135728 | 59 | 124 | 0.0 | 5.0 | 0.00 | 0.05 | 0.01 | 96 | 1002.5 |
| 20260902135229 | 59 | 176 | 0.0 | 5.0 | 0.00 | 0.05 | 0.01 | 96 | 1002.5 |
| 20260902134728 | 59 | 131 | 0.0 | 9.0 | 0.00 | 0.05 | 0.01 | 96 | 1002.5 |
| 20260902134228 | 58 | 119 | 0.0 | 9.0 | 0.00 | 0.05 | 0.01 | 96 | 1002.5 |
| 20260902133728 | 58 | 106 | 0.0 | 9.0 | 0.00 | 0.05 | 0.01 | 96 | 1002.5 |
| 20260902133228 | 58 | 170 | 0.0 | 5.0 | 0.01 | 0.07 | 0.01 | 96 | 1002.5 |
| 20260902132728 | 58 | 200 | 0.0 | 13.0 | 0.01 | 0.07 | 0.01 | 96 | 1002.6 |
| 20260902132228 | 58 | 198 | 0.0 | 13.0 | 0.01 | 0.07 | 0.01 | 96 | 1002.5 |
| 20260902131728 | 58 | 105 | 0.0 | 13.0 | 0.01 | 0.07 | 0.01 | 96 | 1002.7 |
| 20260902131228 | 58 | 75 | 0.0 | 11.0 | 0.01 | 0.07 | 0.01 | 96 | 1002.8 |
| 20260902130728 | 58 | 89 | 3.0 | 11.0 | 0.01 | 0.07 | 0.01 | 96 | 1002.8 |
| 20260902130228 | 59 | 133 | 0.0 | 11.0 | 0.01 | 0.07 | 0.01 | 95 | 1002.9 |
| 20260902125729 | 59 | 127 | 1.0 | 11.0 | 0.01 | 0.07 | 0.01 | 95 | 1003.0 |
| 20260902125228 | 59 | 119 | 0.0 | 9.0 | 0.01 | 0.07 | 0.01 | 93 | 1003.0 |
| 20260902124728 | 59 | 79 | 4.0 | 8.0 | 0.01 | 0.07 | 0.01 | 92 | 1003.0 |
| 20260902124228 | 60 | 0 | 0.0 | 6.0 | 0.01 | 0.07 | 0.01 | 89 | 1003.2 |
| 20260902123728 | 60 | 198 | 0.0 | 6.0 | 0.01 | 0.07 | 0.01 | 89 | 1003.3 |
| 20260902123228 | 60 | 200 | 2.0 | 5.0 | 0.00 | 0.07 | 0.00 | 88 | 1003.3 |
| 20260902122728 | 60 | 92 | 0.0 | 7.0 | 0.00 | 0.07 | 0.00 | 87 | 1003.3 |
| 20260902122228 | 60 | 165 | 0.0 | 7.0 | 0.00 | 0.07 | 0.00 | 86 | 1003.3 |
| 20260902121728 | 60 | 263 | 0.0 | 7.0 | 0.00 | 0.07 | 0.00 | 86 | 1003.3 |
| 20260902121228 | 60 | 114 | 0.0 | 7.0 | 0.00 | 0.07 | 0.00 | 86 | 1003.3 |
| 20260902120728 | 60 | 120 | 0.0 | 2.0 | 0.00 | 0.07 | 0.00 | 85 | 1003.5 |
| 20260902120228 | 60 | 0 | 0.0 | 8.0 | 0.00 | 0.07 | 0.00 | 85 | 1003.6 |
| 20260902115728 | 60 | 130 | 0.0 | 8.0 | 0.00 | 0.07 | 0.00 | 86 | 1003.5 |
| 20260902115228 | 60 | 92 | 0.0 | 8.0 | 0.00 | 0.07 | 0.00 | 86 | 1003.5 |
| 20260902114728 | 60 | 123 | 1.0 | 6.0 | 0.00 | 0.07 | 0.00 | 86 | 1003.6 |
| 20260902114228 | 60 | 107 | 1.0 | 9.0 | 0.00 | 0.07 | 0.00 | 86 | 1003.7 |
| 20260902113729 | 60 | 86 | 4.0 | 9.0 | 0.00 | 0.07 | 0.00 | 87 | 1003.9 |
| 20260902113228 | 60 | 53 | 4.0 | 9.0 | 0.00 | 0.07 | 0.00 | 87 | 1004.0 |
| 20260902112728 | 60 | 65 | 0.0 | 10.0 | 0.00 | 0.07 | 0.00 | 87 | 1004.0 |
| 20260902112228 | 60 | 147 | 2.0 | 10.0 | 0.00 | 0.07 | 0.00 | 88 | 1004.0 |
| 20260902111728 | 60 | 100 | 1.0 | 10.0 | 0.00 | 0.07 | 0.00 | 88 | 1004.1 |
| 20260902111228 | 60 | 116 | 2.0 | 8.0 | 0.00 | 0.07 | 0.00 | 89 | 1004.2 |
| 20260902110728 | 60 | 142 | 1.0 | 8.0 | 0.00 | 0.07 | 0.00 | 90 | 1004.3 |
| 20260902110228 | 60 | 112 | 0.0 | 8.0 | 0.00 | 0.07 | 0.00 | 90 | 1004.4 |
| 20260902105728 | 60 | 119 | 0.0 | 8.0 | 0.00 | 0.07 | 0.00 | 91 | 1004.5 |
| 20260902105228 | 60 | 57 | 0.0 | 8.0 | 0.00 | 0.07 | 0.00 | 91 | 1004.5 |
| 20260902104728 | 59 | 105 | 0.0 | 8.0 | 0.00 | 0.07 | 0.00 | 92 | 1004.6 |
| 20260902104228 | 60 | 131 | 0.0 | 6.0 | 0.00 | 0.07 | 0.00 | 92 | 1004.6 |
| 20260902103728 | 60 | 207 | 0.0 | 6.0 | 0.00 | 0.07 | 0.00 | 92 | 1004.7 |
| 20260902103228 | 60 | 0 | 0.0 | 3.0 | 0.00 | 0.07 | 0.00 | 92 | 1004.7 |
| 20260902102728 | 60 | 173 | 0.0 | 9.0 | 0.00 | 0.07 | 0.00 | 92 | 1004.9 |
| 20260902102228 | 60 | 107 | 0.0 | 9.0 | 0.00 | 0.07 | 0.00 | 92 | 1004.9 |
| 20260902101728 | 60 | 191 | 0.0 | 9.0 | 0.00 | 0.07 | 0.00 | 92 | 1004.9 |
| 20260902101228 | 60 | 184 | 1.0 | 9.0 | 0.00 | 0.07 | 0.00 | 92 | 1005.2 |
| 20260902100728 | 60 | 228 | 0.0 | 9.0 | 0.00 | 0.07 | 0.00 | 92 | 1005.2 |
| 20260902100228 | 60 | 226 | 2.0 | 9.0 | 0.00 | 0.07 | 0.00 | 93 | 1005.1 |
| 20260902095728 | 60 | 201 | 0.0 | 6.0 | 0.00 | 0.07 | 0.00 | 92 | 1005.2 |
| 20260902095228 | 60 | 182 | 0.0 | 9.0 | 0.00 | 0.07 | 0.00 | 93 | 1005.3 |
| 20260902094729 | 60 | 16 | 0.0 | 9.0 | 0.00 | 0.07 | 0.00 | 93 | 1005.4 |
| 20260902094228 | 60 | 259 | 0.0 | 9.0 | 0.00 | 0.07 | 0.00 | 93 | 1005.4 |
| 20260902093728 | 60 | 92 | 0.0 | 11.0 | 0.00 | 0.07 | 0.00 | 93 | 1005.5 |
| 20260902093228 | 60 | 221 | 0.0 | 11.0 | 0.00 | 0.07 | 0.00 | 93 | 1005.5 |
| 20260902092728 | 60 | 205 | 2.0 | 11.0 | 0.00 | 0.07 | 0.00 | 93 | 1005.6 |
| 20260902092228 | 60 | 196 | 3.0 | 10.0 | 0.00 | 0.07 | 0.00 | 93 | 1005.6 |
| 20260902091728 | 60 | 0 | 0.0 | 5.0 | 0.00 | 0.07 | 0.00 | 93 | 1005.7 |
| 20260902091228 | 60 | 142 | 0.0 | 5.0 | 0.00 | 0.07 | 0.00 | 93 | 1005.7 |
| 20260902090728 | 60 | 68 | 1.0 | 10.0 | 0.00 | 0.07 | 0.00 | 93 | 1005.7 |
| 20260902090228 | 60 | 134 | 0.0 | 10.0 | 0.00 | 0.07 | 0.00 | 92 | 1005.8 |
| 20260902085728 | 60 | 177 | 0.0 | 10.0 | 0.00 | 0.07 | 0.00 | 92 | 1005.8 |
| 20260902085228 | 60 | 229 | 1.0 | 8.0 | 0.00 | 0.07 | 0.00 | 92 | 1006.0 |
| 20260902084728 | 60 | 183 | 0.0 | 7.0 | 0.00 | 0.07 | 0.00 | 92 | 1006.1 |
| 20260902084228 | 60 | 194 | 1.0 | 7.0 | 0.00 | 0.07 | 0.00 | 93 | 1006.1 |
| 20260902083728 | 60 | 224 | 2.0 | 2.0 | 0.00 | 0.07 | 0.00 | 93 | 1006.2 |
| 20260902083228 | 60 | 0 | 0.0 | 0.0 | 0.00 | 0.07 | 0.00 | 94 | 1006.1 |
| 20260902082730 | 60 | 0 | 0.0 | 6.0 | 0.00 | 0.07 | 0.00 | 94 | 1006.1 |
| 20260902082229 | 60 | 98 | 0.0 | 6.0 | 0.00 | 0.07 | 0.00 | 94 | 1006.1 |
| 20260902081728 | 60 | 98 | 0.0 | 6.0 | 0.00 | 0.07 | 0.00 | 94 | 1006.2 |
| 20260902081229 | 60 | 64 | 0.0 | 7.0 | 0.00 | 0.07 | 0.00 | 94 | 1006.2 |
| 20260902080728 | 60 | 203 | 0.0 | 7.0 | 0.00 | 0.07 | 0.00 | 94 | 1006.2 |
| 20260902080228 | 60 | 197 | 0.0 | 7.0 | 0.00 | 0.07 | 0.00 | 93 | 1006.4 |
| 20260902075728 | 60 | 211 | 2.0 | 11.0 | 0.00 | 0.07 | 0.00 | 93 | 1006.4 |
| 20260902075228 | 60 | 183 | 0.0 | 11.0 | 0.00 | 0.07 | 0.00 | 92 | 1006.5 |
| 20260902074728 | 61 | 92 | 0.0 | 11.0 | 0.00 | 0.07 | 0.00 | 91 | 1006.5 |
| 20260902074228 | 61 | 0 | 0.0 | 7.0 | 0.00 | 0.07 | 0.00 | 91 | 1006.6 |
| 20260902073728 | 61 | 207 | 0.0 | 7.0 | 0.00 | 0.07 | 0.00 | 91 | 1006.6 |
| 20260902073228 | 61 | 0 | 1.0 | 6.0 | 0.00 | 0.07 | 0.00 | 91 | 1006.7 |
| 20260902072728 | 61 | 191 | 0.0 | 9.0 | 0.00 | 0.07 | 0.00 | 91 | 1006.7 |
| 20260902072228 | 61 | 74 | 0.0 | 9.0 | 0.00 | 0.07 | 0.00 | 91 | 1006.8 |
| 20260902071728 | 60 | 214 | 0.0 | 9.0 | 0.00 | 0.07 | 0.00 | 92 | 1006.8 |
| 20260902071228 | 60 | 235 | 0.0 | 8.0 | 0.00 | 0.07 | 0.00 | 92 | 1006.9 |
| 20260902070728 | 60 | 233 | 0.0 | 8.0 | 0.00 | 0.07 | 0.00 | 93 | 1006.8 |
| 20260902070228 | 60 | 198 | 0.0 | 4.0 | 0.00 | 0.07 | 0.00 | 93 | 1006.9 |
| 20260902065728 | 60 | 190 | 0.0 | 4.0 | 0.00 | 0.07 | 0.00 | 93 | 1006.9 |
| 20260902065228 | 60 | 163 | 0.0 | 4.0 | 0.00 | 0.07 | 0.00 | 93 | 1007.0 |
| 20260902064728 | 60 | 42 | 0.0 | 4.0 | 0.00 | 0.07 | 0.00 | 94 | 1007.1 |
| 20260902064228 | 60 | 0 | 0.0 | 7.0 | 0.00 | 0.07 | 0.00 | 94 | 1007.1 |
| 20260902063728 | 60 | 61 | 0.0 | 7.0 | 0.00 | 0.07 | 0.00 | 94 | 1007.2 |
| 20260902063228 | 60 | 0 | 0.0 | 7.0 | 0.00 | 0.07 | 0.00 | 94 | 1007.1 |
| 20260902062728 | 60 | 113 | 0.0 | 10.0 | 0.00 | 0.07 | 0.00 | 94 | 1007.1 |
| 20260902062228 | 60 | 0 | 0.0 | 10.0 | 0.00 | 0.07 | 0.00 | 95 | 1007.1 |
| 20260902061728 | 60 | 116 | 0.0 | 10.0 | 0.00 | 0.07 | 0.00 | 95 | 1007.1 |
| 20260902061228 | 60 | 177 | 0.0 | 5.0 | 0.00 | 0.07 | 0.00 | 95 | 1007.1 |
| 20260902060728 | 60 | 155 | 0.0 | 5.0 | 0.00 | 0.07 | 0.00 | 95 | 1007.2 |
| 20260902060228 | 60 | 0 | 0.0 | 5.0 | 0.00 | 0.07 | 0.00 | 95 | 1007.3 |
| 20260902055729 | 60 | 138 | 0.0 | 5.0 | 0.00 | 0.07 | 0.00 | 95 | 1007.3 |
| 20260902055228 | 60 | 165 | 0.0 | 7.0 | 0.00 | 0.07 | 0.00 | 95 | 1007.4 |
| 20260902054728 | 60 | 165 | 0.0 | 7.0 | 0.00 | 0.07 | 0.00 | 95 | 1007.4 |
| 20260902054228 | 60 | 226 | 0.0 | 7.0 | 0.00 | 0.07 | 0.00 | 95 | 1007.4 |
| 20260902053728 | 60 | 0 | 0.0 | 7.0 | 0.00 | 0.07 | 0.00 | 95 | 1007.4 |
| 20260902053228 | 60 | 74 | 0.0 | 7.0 | 0.00 | 0.07 | 0.00 | 95 | 1007.4 |
| 20260902052728 | 61 | 0 | 0.0 | 6.0 | 0.00 | 0.07 | 0.00 | 95 | 1007.5 |
| 20260902052228 | 61 | 135 | 0.0 | 6.0 | 0.00 | 0.07 | 0.00 | 95 | 1007.5 |
| 20260902051728 | 61 | 135 | 1.0 | 6.0 | 0.00 | 0.07 | 0.00 | 95 | 1007.5 |
| 20260902051228 | 61 | 116 | 0.0 | 14.0 | 0.00 | 0.07 | 0.00 | 94 | 1007.5 |
| 20260902050728 | 61 | 250 | 0.0 | 14.0 | 0.00 | 0.07 | 0.00 | 94 | 1007.5 |
| 20260902050228 | 61 | 270 | 0.0 | 14.0 | 0.00 | 0.07 | 0.00 | 93 | 1007.5 |
| 20260902045728 | 61 | 222 | 0.0 | 5.0 | 0.00 | 0.07 | 0.00 | 93 | 1007.5 |
| 20260902045228 | 61 | 224 | 0.0 | 10.0 | 0.00 | 0.07 | 0.00 | 92 | 1007.6 |
| 20260902044728 | 61 | 170 | 0.0 | 10.0 | 0.00 | 0.07 | 0.00 | 92 | 1007.6 |
| 20260902044228 | 61 | 172 | 0.0 | 10.0 | 0.00 | 0.07 | 0.00 | 92 | 1007.7 |
| 20260902043728 | 61 | 200 | 1.0 | 8.0 | 0.00 | 0.07 | 0.00 | 92 | 1007.6 |
| 20260902043228 | 61 | 228 | 1.0 | 7.0 | 0.00 | 0.07 | 0.00 | 92 | 1007.6 |
| 20260902042728 | 61 | 214 | 0.0 | 3.0 | 0.00 | 0.07 | 0.00 | 92 | 1007.8 |
| 20260902042228 | 61 | 205 | 0.0 | 3.0 | 0.00 | 0.07 | 0.00 | 91 | 1007.8 |
| 20260902041728 | 61 | 208 | 0.0 | 10.0 | 0.00 | 0.07 | 0.00 | 91 | 1007.8 |
| 20260902041228 | 61 | 207 | 0.0 | 10.0 | 0.00 | 0.07 | 0.00 | 91 | 1007.8 |
| 20260902040728 | 61 | 169 | 1.0 | 10.0 | 0.00 | 0.07 | 0.00 | 91 | 1007.8 |
| 20260902040228 | 61 | 149 | 3.0 | 6.0 | 0.00 | 0.07 | 0.00 | 90 | 1007.8 |
| 20260902035728 | 61 | 215 | 0.0 | 6.0 | 0.00 | 0.07 | 0.00 | 90 | 1007.7 |
| 20260902035228 | 61 | 0 | 2.0 | 3.0 | 0.00 | 0.07 | 0.00 | 90 | 1007.8 |
| 20260902034728 | 62 | 137 | 0.0 | 12.0 | 0.00 | 0.07 | 0.00 | 89 | 1007.8 |
| 20260902034228 | 62 | 176 | 0.0 | 12.0 | 0.00 | 0.07 | 0.00 | 89 | 1007.8 |
| 20260902033728 | 62 | 189 | 1.0 | 12.0 | 0.00 | 0.07 | 0.00 | 88 | 1007.8 |
| 20260902033228 | 62 | 186 | 3.0 | 8.0 | 0.00 | 0.07 | 0.00 | 88 | 1007.8 |
| 20260902032728 | 62 | 197 | 0.0 | 8.0 | 0.00 | 0.07 | 0.00 | 88 | 1007.8 |
| 20260902032228 | 62 | 247 | 4.0 | 8.0 | 0.00 | 0.07 | 0.00 | 87 | 1007.8 |
| 20260902031728 | 62 | 224 | 2.0 | 8.0 | 0.00 | 0.07 | 0.00 | 87 | 1007.8 |
| 20260902031228 | 62 | 212 | 2.0 | 5.0 | 0.00 | 0.07 | 0.00 | 87 | 1007.8 |
| 20260902030728 | 62 | 198 | 0.0 | 5.0 | 0.00 | 0.07 | 0.00 | 87 | 1007.8 |
| 20260902030228 | 62 | 166 | 0.0 | 3.0 | 0.00 | 0.07 | 0.00 | 87 | 1007.7 |
| 20260902025728 | 62 | 233 | 0.0 | 3.0 | 0.00 | 0.07 | 0.00 | 86 | 1007.8 |
| 20260902025228 | 62 | 0 | 0.0 | 4.0 | 0.00 | 0.07 | 0.00 | 86 | 1007.7 |
| 20260902024728 | 62 | 0 | 0.0 | 4.0 | 0.00 | 0.07 | 0.00 | 86 | 1007.7 |
| 20260902024228 | 63 | 217 | 0.0 | 4.0 | 0.00 | 0.07 | 0.00 | 86 | 1007.7 |
| 20260902023728 | 63 | 0 | 0.0 | 4.0 | 0.00 | 0.07 | 0.00 | 85 | 1007.6 |
| 20260902023228 | 63 | 0 | 0.0 | 4.0 | 0.00 | 0.07 | 0.00 | 85 | 1007.7 |
| 20260902022728 | 63 | 179 | 0.0 | 4.0 | 0.00 | 0.07 | 0.00 | 85 | 1007.7 |
| 20260902022228 | 63 | 0 | 0.0 | 9.0 | 0.00 | 0.07 | 0.00 | 85 | 1007.7 |
| 20260902021728 | 63 | 189 | 0.0 | 9.0 | 0.00 | 0.07 | 0.00 | 84 | 1007.7 |
| 20260902021228 | 63 | 198 | 2.0 | 9.0 | 0.00 | 0.07 | 0.00 | 84 | 1007.7 |
| 20260902020728 | 64 | 0 | 3.0 | 8.0 | 0.00 | 0.07 | 0.00 | 84 | 1007.8 |
| 20260902020228 | 64 | 267 | 0.0 | 8.0 | 0.00 | 0.07 | 0.00 | 84 | 1007.8 |